Time,TemperatureF,DewpointF,PressureIn,WindDirection,WindDirectionDegrees,WindSpeedMPH,WindSpeedGustMPH,Humidity,HourlyPrecipIn,Conditions,Clouds,dailyrainin,SoftwareType,DateUTC
2013-02-15 00:02:00,46.0,-99.9,30.20,East,100,5.0,6.0,-999,-99.99,,,-99.99,,2013-02-15 05:02:00,
2013-02-15 00:12:00,46.0,-99.9,30.21,East,96,5.0,6.0,-999,-99.99,,,-99.99,,2013-02-15 05:12:00,
2013-02-15 00:22:00,46.0,-99.9,30.21,East,95,4.0,5.0,-999,-99.99,,,-99.99,,2013-02-15 05:22:00,
2013-02-15 00:33:00,46.0,-99.9,30.21,East,96,6.0,8.0,-999,-99.99,,,-99.99,,2013-02-15 05:33:00,
2013-02-15 00:42:00,46.0,-99.9,30.21,East,98,6.0,7.0,-999,-99.99,,,-99.99,,2013-02-15 05:42:00,
2013-02-15 00:52:00,46.0,-99.9,30.21,East,94,6.0,7.0,-999,-99.99,,,-99.99,,2013-02-15 05:52:00,
2013-02-15 01:02:00,47.0,-99.9,30.21,East,90,5.0,7.0,-999,-99.99,,,-99.99,,2013-02-15 06:02:00,
2013-02-15 01:11:00,47.0,-99.9,30.22,East,92,5.0,6.0,-999,-99.99,,,-99.99,,2013-02-15 06:11:00,
2013-02-15 01:22:00,47.0,-99.9,30.22,East,91,6.0,8.0,-999,-99.99,,,-99.99,,2013-02-15 06:22:00,
2013-02-15 01:32:00,46.0,-99.9,30.22,East,95,6.0,7.0,-999,-99.99,,,-99.99,,2013-02-15 06:32:00,
2013-02-15 01:42:00,46.0,-99.9,30.22,East,97,6.0,8.0,-999,-99.99,,,-99.99,,2013-02-15 06:42:00,
2013-02-15 01:52:00,46.0,-99.9,30.22,East,96,7.0,8.0,-999,-99.99,,,-99.99,,2013-02-15 06:52:00,
2013-02-15 02:01:00,46.0,-99.9,30.22,East,100,7.0,8.0,-999,-99.99,,,-99.99,,2013-02-15 07:01:00,
2013-02-15 02:11:00,45.0,-99.9,30.22,East,96,8.0,8.0,-999,-99.99,,,-99.99,,2013-02-15 07:11:00,
2013-02-15 02:21:00,46.0,-99.9,30.22,East,94,6.0,8.0,-999,-99.99,,,-99.99,,2013-02-15 07:21:00,
2013-02-15 02:32:00,45.0,-99.9,30.22,East,96,7.0,8.0,-999,-99.99,,,-99.99,,2013-02-15 07:32:00,
2013-02-15 02:42:00,45.0,-99.9,30.22,East,95,7.0,9.0,-999,-99.99,,,-99.99,,2013-02-15 07:42:00,
2013-02-15 02:52:00,45.0,-99.9,30.22,East,92,8.0,8.0,-999,-99.99,,,-99.99,,2013-02-15 07:52:00,
2013-02-15 03:01:00,45.0,-99.9,30.22,East,94,7.0,8.0,-999,-99.99,,,-99.99,,2013-02-15 08:01:00,
2013-02-15 03:11:00,45.0,-99.9,30.22,East,99,8.0,9.0,-999,-99.99,,,-99.99,,2013-02-15 08:11:00,
2013-02-15 03:21:00,45.0,-99.9,30.22,East,98,9.0,9.0,-999,-99.99,,,-99.99,,2013-02-15 08:21:00,
2013-02-15 03:32:00,44.0,-99.9,30.22,East,100,8.0,9.0,-999,-99.99,,,-99.99,,2013-02-15 08:32:00,
2013-02-15 03:42:00,45.0,-99.9,30.22,East,95,8.0,9.0,-999,-99.99,,,-99.99,,2013-02-15 08:42:00,
2013-02-15 03:53:00,45.0,-99.9,30.22,East,96,8.0,9.0,-999,-99.99,,,-99.99,,2013-02-15 08:53:00,
2013-02-15 04:02:00,44.0,-99.9,30.23,East,98,8.0,10.0,-999,-99.99,,,-99.99,,2013-02-15 09:02:00,
2013-02-15 04:12:00,44.0,-99.9,30.23,East,99,8.0,8.0,-999,-99.99,,,-99.99,,2013-02-15 09:12:00,
2013-02-15 04:22:00,45.0,-99.9,30.23,East,95,8.0,9.0,-999,-99.99,,,-99.99,,2013-02-15 09:22:00,
2013-02-15 04:32:00,45.0,-99.9,30.23,East,98,8.0,10.0,-999,-99.99,,,-99.99,,2013-02-15 09:32:00,
2013-02-15 04:42:00,44.0,-99.9,30.23,East,98,7.0,9.0,-999,-99.99,,,-99.99,,2013-02-15 09:42:00,
2013-02-15 04:52:00,44.0,-99.9,30.22,East,96,9.0,9.0,-999,-99.99,,,-99.99,,2013-02-15 09:52:00,
2013-02-15 05:02:00,44.0,-99.9,30.23,East,96,9.0,10.0,-999,-99.99,,,-99.99,,2013-02-15 10:02:00,
2013-02-15 05:11:00,45.0,-99.9,30.23,East,90,8.0,9.0,-999,-99.99,,,-99.99,,2013-02-15 10:11:00,
2013-02-15 05:22:00,46.0,-99.9,30.22,East,96,6.0,7.0,-999,-99.99,,,-99.99,,2013-02-15 10:22:00,
2013-02-15 05:32:00,44.0,-99.9,30.23,East,94,9.0,10.0,-999,-99.99,,,-99.99,,2013-02-15 10:32:00,
2013-02-15 05:42:00,45.0,-99.9,30.22,East,90,8.0,10.0,-999,-99.99,,,-99.99,,2013-02-15 10:42:00,
2013-02-15 05:52:00,45.0,-99.9,30.22,East,87,7.0,9.0,-999,-99.99,,,-99.99,,2013-02-15 10:52:00,
2013-02-15 06:01:00,44.0,-99.9,30.22,East,93,9.0,9.0,-999,-99.99,,,-99.99,,2013-02-15 11:01:00,
2013-02-15 06:11:00,44.0,-99.9,30.22,East,94,9.0,9.0,-999,-99.99,,,-99.99,,2013-02-15 11:11:00,
2013-02-15 06:23:00,44.0,-99.9,30.22,East,94,8.0,10.0,-999,-99.99,,,-99.99,,2013-02-15 11:23:00,
2013-02-15 06:32:00,44.0,-99.9,30.21,East,93,8.0,9.0,-999,-99.99,,,-99.99,,2013-02-15 11:32:00,
2013-02-15 06:43:00,44.0,-99.9,30.21,East,95,8.0,8.0,-999,-99.99,,,-99.99,,2013-02-15 11:43:00,
2013-02-15 06:52:00,44.0,-99.9,30.21,East,95,9.0,9.0,-999,-99.99,,,-99.99,,2013-02-15 11:52:00,
2013-02-15 07:02:00,44.0,-99.9,30.21,East,96,9.0,10.0,-999,-99.99,,,-99.99,,2013-02-15 12:02:00,
2013-02-15 07:11:00,44.0,-99.9,30.21,East,94,9.0,9.0,-999,-99.99,,,-99.99,,2013-02-15 12:11:00,
2013-02-15 07:22:00,44.0,-99.9,30.21,East,96,9.0,11.0,-999,-99.99,,,-99.99,,2013-02-15 12:22:00,
2013-02-15 07:32:00,44.0,-99.9,30.21,East,92,8.0,10.0,-999,-99.99,,,-99.99,,2013-02-15 12:32:00,
2013-02-15 07:42:00,44.0,-99.9,30.21,East,96,9.0,10.0,-999,-99.99,,,-99.99,,2013-02-15 12:42:00,
2013-02-15 07:53:00,43.0,-99.9,30.22,East,93,9.0,9.0,-999,-99.99,,,-99.99,,2013-02-15 12:53:00,
2013-02-15 08:02:00,44.0,-99.9,30.22,East,97,9.0,10.0,-999,-99.99,,,-99.99,,2013-02-15 13:02:00,
2013-02-15 08:11:00,45.0,-99.9,30.22,East,95,9.0,10.0,-999,-99.99,,,-99.99,,2013-02-15 13:11:00,
2013-02-15 08:22:00,45.0,-99.9,30.22,East,97,8.0,10.0,-999,-99.99,,,-99.99,,2013-02-15 13:22:00,
2013-02-15 08:32:00,45.0,-99.9,30.22,East,94,9.0,10.0,-999,-99.99,,,-99.99,,2013-02-15 13:32:00,
2013-02-15 08:42:00,45.0,-99.9,30.22,East,99,8.0,11.0,-999,-99.99,,,-99.99,,2013-02-15 13:42:00,
2013-02-15 08:52:00,45.0,-99.9,30.22,East,96,10.0,10.0,-999,-99.99,,,-99.99,,2013-02-15 13:52:00,
2013-02-15 09:01:00,44.0,-99.9,30.22,East,95,8.0,10.0,-999,-99.99,,,-99.99,,2013-02-15 14:01:00,
2013-02-15 09:12:00,44.0,-99.9,30.22,East,92,8.0,9.0,-999,-99.99,,,-99.99,,2013-02-15 14:12:00,
2013-02-15 09:22:00,45.0,-99.9,30.22,East,98,10.0,12.0,-999,-99.99,,,-99.99,,2013-02-15 14:22:00,
2013-02-15 09:32:00,45.0,-99.9,30.23,East,95,7.0,9.0,-999,-99.99,,,-99.99,,2013-02-15 14:32:00,
2013-02-15 09:42:00,45.0,-99.9,30.22,East,95,9.0,10.0,-999,-99.99,,,-99.99,,2013-02-15 14:42:00,
2013-02-15 09:52:00,44.0,-99.9,30.22,East,96,9.0,11.0,-999,-99.99,,,-99.99,,2013-02-15 14:52:00,
2013-02-15 10:02:00,44.0,-99.9,30.22,East,95,9.0,10.0,-999,-99.99,,,-99.99,,2013-02-15 15:02:00,
2013-02-15 10:11:00,46.0,-99.9,30.22,East,95,11.0,12.0,-999,-99.99,,,-99.99,,2013-02-15 15:11:00,
2013-02-15 10:22:00,44.0,-99.9,30.22,East,98,11.0,11.0,-999,-99.99,,,-99.99,,2013-02-15 15:22:00,
2013-02-15 10:32:00,44.0,-99.9,30.22,East,91,8.0,10.0,-999,-99.99,,,-99.99,,2013-02-15 15:32:00,
2013-02-15 10:42:00,45.0,-99.9,30.23,East,95,11.0,11.0,-999,-99.99,,,-99.99,,2013-02-15 15:42:00,
2013-02-15 10:52:00,45.0,-99.9,30.23,East,99,11.0,12.0,-999,-99.99,,,-99.99,,2013-02-15 15:52:00,
2013-02-15 11:02:00,46.0,-99.9,30.23,East,92,8.0,9.0,-999,-99.99,,,-99.99,,2013-02-15 16:02:00,
2013-02-15 11:12:00,45.0,-99.9,30.24,East,101,8.0,10.0,-999,-99.99,,,-99.99,,2013-02-15 16:12:00,
2013-02-15 11:22:00,46.0,-99.9,30.24,East,96,6.0,8.0,-999,-99.99,,,-99.99,,2013-02-15 16:22:00,
2013-02-15 11:32:00,47.0,-99.9,30.25,East,98,9.0,9.0,-999,-99.99,,,-99.99,,2013-02-15 16:32:00,
2013-02-15 11:43:00,47.0,-99.9,30.25,East,96,6.0,7.0,-999,-99.99,,,-99.99,,2013-02-15 16:43:00,
2013-02-15 11:52:00,48.0,-99.9,30.25,East,90,6.0,6.0,-999,-99.99,,,-99.99,,2013-02-15 16:52:00,
2013-02-15 12:01:00,51.0,-99.9,30.26,ENE,77,2.0,3.0,-999,-99.99,,,-99.99,,2013-02-15 17:01:00,
2013-02-15 12:11:00,50.0,-99.9,30.26,East,90,5.0,5.0,-999,-99.99,,,-99.99,,2013-02-15 17:11:00,
2013-02-15 12:21:00,51.0,-99.9,30.26,East,97,3.0,4.0,-999,-99.99,,,-99.99,,2013-02-15 17:21:00,
2013-02-15 12:32:00,52.0,-99.9,30.26,SE,129,-999.0,1.0,-999,-99.99,,,-99.99,,2013-02-15 17:32:00,
2013-02-15 12:42:00,52.0,-99.9,30.26,North,353,-999.0,2.0,-999,-99.99,,,-99.99,,2013-02-15 17:42:00,
2013-02-15 12:52:00,55.0,-99.9,30.26,East,85,2.0,2.0,-999,-99.99,,,-99.99,,2013-02-15 17:52:00,
2013-02-15 13:02:00,57.0,-99.9,30.27,ENE,70,-999.0,1.0,-999,-99.99,,,-99.99,,2013-02-15 18:02:00,
2013-02-15 13:12:00,53.0,-99.9,30.27,WNW,292,0.0,2.0,-999,-99.99,,,-99.99,,2013-02-15 18:12:00,
2013-02-15 13:22:00,54.0,-99.9,30.27,NW,311,-999.0,0.0,-999,-99.99,,,-99.99,,2013-02-15 18:22:00,
2013-02-15 13:32:00,55.0,-99.9,30.27,NW,320,1.0,2.0,-999,-99.99,,,-99.99,,2013-02-15 18:32:00,
2013-02-15 13:42:00,55.0,-99.9,30.27,NW,317,1.0,2.0,-999,-99.99,,,-99.99,,2013-02-15 18:42:00,
2013-02-15 13:53:00,56.0,-99.9,30.27,West,278,1.0,2.0,-999,-99.99,,,-99.99,,2013-02-15 18:53:00,
2013-02-15 14:02:00,60.0,-99.9,30.27,SSE,152,2.0,3.0,-999,-99.99,,,-99.99,,2013-02-15 19:02:00,
2013-02-15 14:11:00,60.0,-99.9,30.28,WSW,249,1.0,5.0,-999,-99.99,,,-99.99,,2013-02-15 19:11:00,
2013-02-15 14:22:00,58.0,-99.9,30.28,SSW,203,2.0,5.0,-999,-99.99,,,-99.99,,2013-02-15 19:22:00,
2013-02-15 14:32:00,59.0,-99.9,30.28,SSW,197,4.0,6.0,-999,-99.99,,,-99.99,,2013-02-15 19:32:00,
2013-02-15 14:42:00,56.0,-99.9,30.28,South,189,2.0,4.0,-999,-99.99,,,-99.99,,2013-02-15 19:42:00,
2013-02-15 14:52:00,56.0,-99.9,30.28,West,259,1.0,3.0,-999,-99.99,,,-99.99,,2013-02-15 19:52:00,
2013-02-15 15:02:00,59.0,-99.9,30.28,SW,219,1.0,3.0,-999,-99.99,,,-99.99,,2013-02-15 20:02:00,
2013-02-15 15:11:00,58.0,-99.9,30.28,SW,233,1.0,3.0,-999,-99.99,,,-99.99,,2013-02-15 20:11:00,
2013-02-15 15:22:00,58.0,-99.9,30.27,WNW,289,1.0,2.0,-999,-99.99,,,-99.99,,2013-02-15 20:22:00,
2013-02-15 15:32:00,59.0,-99.9,30.27,North,355,0.0,2.0,-999,-99.99,,,-99.99,,2013-02-15 20:32:00,
2013-02-15 15:42:00,58.0,-99.9,30.27,NW,309,2.0,4.0,-999,-99.99,,,-99.99,,2013-02-15 20:42:00,
2013-02-15 15:53:00,60.0,-99.9,30.27,West,275,1.0,2.0,-999,-99.99,,,-99.99,,2013-02-15 20:53:00,
2013-02-15 16:02:00,58.0,-99.9,30.27,WSW,253,3.0,4.0,-999,-99.99,,,-99.99,,2013-02-15 21:02:00,
2013-02-15 16:11:00,57.0,-99.9,30.26,West,272,2.0,4.0,-999,-99.99,,,-99.99,,2013-02-15 21:11:00,
2013-02-15 16:22:00,57.0,-99.9,30.26,NW,314,2.0,4.0,-999,-99.99,,,-99.99,,2013-02-15 21:22:00,
2013-02-15 16:32:00,58.0,-99.9,30.25,NW,307,1.0,2.0,-999,-99.99,,,-99.99,,2013-02-15 21:32:00,
2013-02-15 16:42:00,57.0,-99.9,30.25,WNW,293,2.0,2.0,-999,-99.99,,,-99.99,,2013-02-15 21:42:00,
2013-02-15 16:52:00,58.0,-99.9,30.25,West,277,2.0,2.0,-999,-99.99,,,-99.99,,2013-02-15 21:52:00,
2013-02-15 17:02:00,59.0,-99.9,30.24,WNW,297,1.0,2.0,-999,-99.99,,,-99.99,,2013-02-15 22:02:00,
2013-02-15 17:11:00,59.0,-99.9,30.24,WNW,295,2.0,2.0,-999,-99.99,,,-99.99,,2013-02-15 22:11:00,
2013-02-15 17:22:00,58.0,-99.9,30.24,WSW,256,2.0,2.0,-999,-99.99,,,-99.99,,2013-02-15 22:22:00,
2013-02-15 17:32:00,58.0,-99.9,30.24,West,260,1.0,2.0,-999,-99.99,,,-99.99,,2013-02-15 22:32:00,
2013-02-15 17:42:00,58.0,-99.9,30.24,NW,304,1.0,2.0,-999,-99.99,,,-99.99,,2013-02-15 22:42:00,
2013-02-15 17:52:00,61.0,-99.9,30.24,West,270,0.0,1.0,-999,-99.99,,,-99.99,,2013-02-15 22:52:00,
2013-02-15 18:02:00,62.0,-99.9,30.24,SW,236,-999.0,0.0,-999,-99.99,,,-99.99,,2013-02-15 23:02:00,
2013-02-15 18:11:00,62.0,-99.9,30.24,SW,236,-999.0,0.0,-999,-99.99,,,-99.99,,2013-02-15 23:11:00,
2013-02-15 18:21:00,63.0,-99.9,30.24,SSW,203,-999.0,0.0,-999,-99.99,,,-99.99,,2013-02-15 23:21:00,
2013-02-15 18:32:00,63.0,-99.9,30.24,SW,222,-999.0,1.0,-999,-99.99,,,-99.99,,2013-02-15 23:32:00,
2013-02-15 18:42:00,61.0,-99.9,30.25,NNW,343,1.0,4.0,-999,-99.99,,,-99.99,,2013-02-15 23:42:00,
2013-02-15 18:52:00,60.0,-99.9,30.25,WNW,284,4.0,6.0,-999,-99.99,,,-99.99,,2013-02-15 23:52:00,
2013-02-15 19:02:00,60.0,-99.9,30.25,West,270,5.0,6.0,-999,-99.99,,,-99.99,,2013-02-16 00:02:00,
2013-02-15 19:11:00,61.0,-99.9,30.25,West,274,3.0,5.0,-999,-99.99,,,-99.99,,2013-02-16 00:11:00,
2013-02-15 19:22:00,62.0,-99.9,30.25,WNW,291,1.0,4.0,-999,-99.99,,,-99.99,,2013-02-16 00:22:00,
2013-02-15 19:32:00,63.0,-99.9,30.25,WNW,294,5.0,6.0,-999,-99.99,,,-99.99,,2013-02-16 00:32:00,
2013-02-15 19:42:00,64.0,-99.9,30.25,WNW,283,3.0,7.0,-999,-99.99,,,-99.99,,2013-02-16 00:42:00,
2013-02-15 19:52:00,64.0,-99.9,30.25,WNW,299,3.0,7.0,-999,-99.99,,,-99.99,,2013-02-16 00:52:00,
2013-02-15 20:02:00,64.0,-99.9,30.25,WNW,291,2.0,4.0,-999,-99.99,,,-99.99,,2013-02-16 01:02:00,
2013-02-15 20:11:00,63.0,-99.9,30.24,ENE,66,3.0,6.0,-999,-99.99,,,-99.99,,2013-02-16 01:11:00,
2013-02-15 20:21:00,63.0,-99.9,30.24,NE,46,2.0,7.0,-999,-99.99,,,-99.99,,2013-02-16 01:21:00,
2013-02-15 20:32:00,61.0,-99.9,30.24,ENE,76,4.0,6.0,-999,-99.99,,,-99.99,,2013-02-16 01:32:00,
2013-02-15 20:42:00,60.0,-99.9,30.24,East,91,3.0,6.0,-999,-99.99,,,-99.99,,2013-02-16 01:42:00,
2013-02-15 20:52:00,59.0,-99.9,30.24,ENE,62,5.0,8.0,-999,-99.99,,,-99.99,,2013-02-16 01:52:00,
2013-02-15 21:01:00,58.0,-99.9,30.24,ESE,103,2.0,6.0,-999,-99.99,,,-99.99,,2013-02-16 02:01:00,
2013-02-15 21:11:00,57.0,-99.9,30.24,East,82,3.0,6.0,-999,-99.99,,,-99.99,,2013-02-16 02:11:00,
2013-02-15 21:22:00,56.0,-99.9,30.24,ENE,65,3.0,6.0,-999,-99.99,,,-99.99,,2013-02-16 02:22:00,
2013-02-15 21:32:00,56.0,-99.9,30.24,ENE,73,3.0,6.0,-999,-99.99,,,-99.99,,2013-02-16 02:32:00,
2013-02-15 21:42:00,56.0,-99.9,30.24,East,80,2.0,6.0,-999,-99.99,,,-99.99,,2013-02-16 02:42:00,
2013-02-15 21:52:00,55.0,-99.9,30.25,East,85,3.0,4.0,-999,-99.99,,,-99.99,,2013-02-16 02:52:00,
2013-02-15 22:02:00,55.0,-99.9,30.25,East,80,4.0,6.0,-999,-99.99,,,-99.99,,2013-02-16 03:02:00,
2013-02-15 22:11:00,55.0,-99.9,30.24,ENE,73,4.0,6.0,-999,-99.99,,,-99.99,,2013-02-16 03:11:00,
2013-02-15 22:22:00,54.0,-99.9,30.25,ENE,71,5.0,7.0,-999,-99.99,,,-99.99,,2013-02-16 03:22:00,
2013-02-15 22:32:00,54.0,-99.9,30.25,ENE,57,4.0,7.0,-999,-99.99,,,-99.99,,2013-02-16 03:32:00,
2013-02-15 22:42:00,54.0,-99.9,30.25,ENE,59,4.0,7.0,-999,-99.99,,,-99.99,,2013-02-16 03:42:00,
2013-02-15 22:52:00,54.0,-99.9,30.24,ENE,57,5.0,7.0,-999,-99.99,,,-99.99,,2013-02-16 03:52:00,
2013-02-15 23:01:00,54.0,-99.9,30.24,ENE,69,5.0,7.0,-999,-99.99,,,-99.99,,2013-02-16 04:01:00,
2013-02-15 23:11:00,55.0,-99.9,30.24,ENE,65,5.0,8.0,-999,-99.99,,,-99.99,,2013-02-16 04:11:00,
2013-02-15 23:21:00,55.0,-99.9,30.24,ENE,65,4.0,8.0,-999,-99.99,,,-99.99,,2013-02-16 04:21:00,
2013-02-15 23:32:00,55.0,-99.9,30.24,ENE,66,4.0,7.0,-999,-99.99,,,-99.99,,2013-02-16 04:32:00,
2013-02-15 23:42:00,55.0,-99.9,30.24,ENE,72,5.0,7.0,-999,-99.99,,,-99.99,,2013-02-16 04:42:00,
2013-02-15 23:52:00,55.0,-99.9,30.24,ENE,67,4.0,7.0,-999,-99.99,,,-99.99,,2013-02-16 04:52:00,